{"data":{"norad_id":69939,"epoch":"2026-09-19T11:43:41.161440Z","epoch_age_seconds":105115,"freshness":"FRESH","line1":"1 69939U 26156BY  26262.48867085  .00000819  00000+0  84973-4 0  9992","line2":"2 69939  97.7487 161.8232 0008161 278.9442  81.0853 14.92631292 11067","mean_motion":14.92631292,"eccentricity":0.0008161,"inclination_deg":97.7487,"raan_deg":161.8232,"arg_perigee_deg":278.9442,"mean_anomaly_deg":81.0853,"bstar":8.4973e-5,"rev_number":1106,"period_min":96.47392545754,"perigee_km":584.04823974962,"apogee_km":595.42119997078,"semimajor_km":6967.8717198602,"source":"CELESTRAK","updated_at":"2026-09-20T09:00:25.209392Z"}}